Location: Betchat
(43.0929°N, 1.0118°E)
Time: 01:53:27
(UTC+00:00)

Daily predictions for brighter satellites

Satellite Brightness Start Highest point End
(mag) Time Altitude Azimuth Time Altitude Azimuth Time Altitude Azimuth
USA 234 4.4 02:20:07 10° E 02:24:09 36° ENE 02:24:09 36° ENE
Lacrosse 5 4.3 02:40:09 18° ENE 02:40:09 18° ENE 02:41:46 10° E
CZ-2C R/B 4.3 02:58:59 10° NE 03:02:02 24° ENE 03:02:02 24° ENE
ATLAS 5 CENTAUR R/B 4.2 03:19:17 13° ESE 03:19:17 13° ESE 03:20:56 10° E
S3M 4.1 03:21:13 70° ENE 03:21:13 70° ENE 03:26:59 10° NNE
ARIANE 5 R/B 4.0 03:21:00 10° N 03:23:22 28° N 03:23:22 28° N
Cosmos 1745 Rocket 4.0 03:20:15 10° N 03:26:32 79° ENE 03:26:32 79° ENE
USA 267 3.6 03:29:21 10° NE 03:35:36 50° NNW 03:35:57 49° NW
NOSS 3-2 (A) 4.1 03:35:16 10° NW 03:42:55 83° NE 03:51:31 10° SE
Cosmos 2344 3.4 03:46:42 61° WSW 03:48:05 77° NW 03:55:58 10° NE
Cosmos 1833 4.1 03:48:29 79° NNW 03:48:29 79° NNW 03:53:53 10° NNE
Cosmos 1386 Rocket 4.4 03:47:14 10° NNW 03:53:34 68° W 03:53:42 68° WSW
CENTAUR R/B 3.4 03:45:48 10° NNW 03:53:57 71° NE 04:02:51 10° SE
Cosmos 2251 Rocket 3.5 03:53:52 74° SSE 03:54:18 82° ESE 03:59:43 10° NNE
OAO 3 Rocket 4.5 04:00:08 30° SSE 04:00:08 30° SSE 04:03:40 10° ESE
ISS -1.6 04:00:41 25° NE 04:00:41 25° NE 04:03:00 10° ENE
Cosmos 2360 Rocket 3.7 04:04:23 22° S 04:04:23 22° S 04:06:20 10° S
H-2A R/B 4.4 03:52:49 34° WSW 04:00:53 48° S 04:07:28 10° ESE
IDEFIX/ARIANE 42P 4.3 03:58:34 10° N 04:00:31 19° NNW 04:00:31 19° NNW
ALOS 2.9 03:59:41 10° NNE 04:04:17 53° E 04:07:02 23° SSE
PAYLOAD A 4.0 03:59:13 10° N 04:04:33 73° WNW 04:05:04 67° WSW
Cosmos 2333 4.2 04:02:39 10° NNW 04:08:28 88° ENE 04:14:16 10° SSE
USA 234 3.2 04:02:46 10° SE 04:09:12 61° SW 04:11:34 40° WNW
CZ-4C R/B 2.3 04:10:13 39° S 04:11:53 60° ESE 04:17:29 10° NE
Cosmos 883 Rocket 4.3 04:11:11 39° SSW 04:13:34 71° W 04:19:42 10° N
USA 276 3.7 04:16:02 32° NNE 04:16:02 32° NNE 04:18:07 10° NE
PSLV R/B 3.4 04:12:32 10° N 04:16:56 80° WNW 04:17:21 71° SW
NOSS 3-4 (A) 3.7 04:16:30 25° SSW 04:19:52 63° ESE 04:25:59 10° NE
NOSS 3-4 (C) 3.7 04:16:34 25° SSW 04:19:59 62° ESE 04:26:05 10° NE
Lacrosse 5 1.7 04:19:24 47° WNW 04:20:52 78° SW 04:25:54 10° SE
NOSS 3-2 (C) 4.1 04:17:17 10° NW 04:24:57 89° WSW 04:33:37 10° SSE
GPS 2-04 Rocket1 4.0 04:26:32 25° SSE 04:26:32 25° SSE 04:29:17 10° ESE
Cosmos 2333 Rocket 2.1 04:23:57 10° NNW 04:29:45 79° WSW 04:35:30 10° SSE
Cosmos 1437 Rocket 3.9 04:29:05 10° SSE 04:32:59 46° E 04:36:50 10° NNE
Cosmos 1484 Rocket 2.5 04:30:08 10° NNE 04:33:51 89° E 04:35:27 33° SSW
Cosmos 1805 Rocket 3.6 04:30:05 10° NNW 04:34:28 56° W 04:38:49 10° S
ATLAS 2AS CENTAUR R/B 3.5 04:27:17 10° SSW 04:35:00 60° ESE 04:42:40 10° NE
Landsat 5 3.1 04:31:48 10° S 04:35:35 63° W 04:39:27 10° NNW
SJ-6F 4.3 04:33:13 10° N 04:37:25 83° WNW 04:40:19 20° SSW
Cosmos 2315 Rocket 4.0 04:34:41 20° SSW 04:39:00 55° WNW 04:45:06 10° N
CZ-4B R/B 3.7 04:37:22 10° SE 04:39:54 24° ENE 04:42:25 10° NNE
Cosmos 2297 Rocket 4.0 04:35:47 10° SSE 04:40:41 31° ESE 04:45:36 10° NE
COSMO-SKYMED 1 3.9 04:36:44 10° SE 04:40:48 41° ENE 04:44:54 10° N
CZ-2C R/B 2.9 04:36:57 10° N 04:41:11 34° WNW 04:41:25 33° WNW
Cosmos 1782 3.5 04:39:06 10° S 04:42:57 54° E 04:46:49 10° NNE
Cosmos 2219 Rocket 2.1 04:38:43 10° NNW 04:44:22 70° WSW 04:50:00 10° SSE
Cosmos 1606 4.0 04:47:57 25° NW 04:47:57 25° NW 04:50:22 10° NNW
Cosmos 1140 Rocket 3.6 04:43:09 10° SSW 04:48:21 79° ESE 04:53:33 10° NNE
CBERS 1 LM4 rocket 4.2 04:44:13 10° N 04:48:59 73° WNW 04:53:41 10° SSW
Sich 1 3.2 04:46:50 10° NNW 04:51:06 48° W 04:55:18 10° SSW
Meteor 1-26 Rocket 4.4 04:45:52 10° S 04:51:35 79° E 04:57:30 10° NNE
METEOR-M 4.1 04:49:43 10° N 04:55:02 69° WNW 05:00:19 10° SSW
Cosmos 1666 Rocket 3.4 04:53:56 10° NNW 04:58:17 68° W 05:02:39 10° S
Cosmos 2074 Rocket 4.0 04:52:58 10° N 04:59:12 90° WSW 05:05:24 10° S
MOS 1 Rocket 3.4 04:55:31 10° SSE 04:59:52 75° ENE 05:04:30 10° N
Cosmos 1023 Rocket 4.4 04:54:53 10° SSW 05:00:05 80° WNW 05:05:17 10° NNE
SeaSat 1 2.8 04:55:29 10° SE 05:00:23 70° ENE 05:05:18 10° NNW
COSMOS 2428 2.7 04:55:23 10° NNW 05:01:01 61° WSW 05:06:38 10° S
BREEZE M DEB (TANK) 3.3 04:59:34 19° NW 05:01:29 48° NNE 05:08:21 10° E
ATLAS 5 CENTAUR R/B 1.4 05:00:50 25° WSW 05:02:59 58° NW 05:07:21 10° NNE
BREEZE-M DEB (TANK) 3.9 05:00:37 19° WNW 05:03:03 30° NNW 05:05:27 10° NE
USA 238 DEB 4.2 04:58:07 10° NW 05:04:55 42° WSW 05:11:56 10° S
USA 238 4.2 04:58:13 10° NW 05:05:02 43° WSW 05:12:02 10° S
Cosmos 2154 Rocket 4.4 05:00:26 10° N 05:06:39 69° E 05:12:53 10° SSE
BREEZE-M DEB (TANK) 4.1 05:08:11 17° SW 05:08:33 17° SSW 05:11:18 10° SSE
ATLAS 3B R/B 3.8 05:02:06 10° NNW 05:08:50 48° NE 05:15:49 10° ESE
CZ-4B R/B 3.5 05:06:00 10° N 05:09:39 70° WNW 05:13:16 10° SSW
ADEOS 3.5 05:05:06 10° N 05:10:20 75° WNW 05:15:32 10° SSW
Cosmos 1602 3.7 05:08:07 10° NNW 05:12:00 62° W 05:15:50 10° S
FENGYUN 3A 4.3 05:11:10 10° N 05:16:02 34° WNW 05:20:52 10° SW
H-2A R/B 2.5 05:13:19 10° SSW 05:17:14 37° W 05:21:06 10° NNW
Cosmos 1151 Rocket 3.2 05:14:30 10° SSW 05:18:40 47° WNW 05:22:50 10° N
Meteor 1-25 Rocket 4.4 05:14:19 10° NNW 05:19:35 45° W 05:24:49 10° SSW
Cosmos 2219 3.7 05:14:53 10° S 05:20:27 63° ESE 05:26:02 10° NNE
NOSS 0 Rocket 3.9 05:18:46 10° NNW 05:24:55 71° WSW 05:31:04 10° SSE
Cosmos 2184 Rocket 4.1 05:19:53 10° NNW 05:26:06 59° W 05:32:20 10° S
SKYMED 2 3.6 05:24:31 10° S 05:28:48 59° W 05:33:07 10° NNW
Cosmos 1633 Rocket 3.5 05:25:14 10° NNW 05:29:18 37° W 05:33:19 10° SSW
CZ-2C R/B 4.1 05:28:54 10° S 05:30:20 11° SSE 05:31:47 10° SE
USA-17 4.4 05:27:28 10° SW 05:31:26 70° NW 05:34:38 10° NNE
Cosmos 1242 Rocket 2.5 05:30:23 10° S 05:33:49 84° E 05:37:19 10° NNE
H-2A R/B 2.7 05:30:55 10° N 05:34:50 83° W 05:38:42 10° SSW
ISS -3.8 05:33:49 10° WNW 05:37:10 73° SW 05:40:31 10° SE
Milstar 3 Cent rocket 4.0 05:35:26 10° SW 05:37:42 13° S 05:39:56 10° SSE
Cosmos 1812 2.6 05:35:10 10° SSW 05:39:00 78° W 05:42:51 10° N
CZ-2C R/B 3.8 05:35:33 10° SE 05:40:57 50° ENE 05:46:21 10° N
NOSS 7 (E) 4.5 05:37:09 10° SW 05:41:11 84° NW 05:44:25 10° NE
ALOS 3.8 05:38:10 10° NNW 05:41:16 18° WNW 05:44:21 10° WSW
CENTAUR R/B 3.9 05:37:09 10° NW 05:44:25 33° WSW 05:52:02 10° S
BREEZE-M DEB (TANK) 4.3 05:43:34 10° NNW 05:44:34 12° NNE 05:45:43 10° NE
Meteor 1-31 Rocket 3.8 05:43:00 10° NNW 05:46:15 26° WNW 05:49:28 10° SW
Cosmos 1954 Rocket 4.1 05:41:53 10° SSW 05:47:05 59° WNW 05:52:17 10° NNE
Meteor 1-14 Rocket 4.4 05:41:50 10° NNW 05:47:21 54° W 05:52:58 10° S
RESURS DK-1 2.3 05:43:25 10° SSW 05:47:32 80° WNW 05:51:41 10° NNE
SAR-Lupe-4 3.9 05:46:09 10° SSE 05:49:41 72° ENE 05:53:16 10° N
USA 276 3.9 05:49:03 10° WNW 05:51:41 23° N 05:54:20 10° NE
Cosmos 2237 Rocket 2.2 05:46:35 10° NNW 05:52:12 64° WSW 05:57:46 10° S
Cosmos 1869 Rocket 4.4 05:47:51 10° N 05:52:17 57° E 05:56:41 10° SSE
Timation 2 Rocket 4.2 05:51:12 10° SSW 05:58:04 75° WNW 06:04:50 10° NNE
